JST965 YPPH-YBBN

Flight info

Callsign JST965
Flight time 4h 20m
Altitude 33000
Route AMANA Y31 LAKIR Y69 BOSLI Y67 KG DCT PINAV/N0453F350 DCT OOM DCT CMU DCT SGE DCT GUSNI DCT ENLIP
Aircraft A21N/M-SDE2E3FGHIRWXY/LB1

Departure

Time 2026-05-06 17:54
Airport Perth International Airport (YPPH)

Arrival

Time 2026-05-06 22:15
Airport Brisbane International Airport (YBBN)
Time Latitude Longitude Altitude Speed Heading
2026-05-06 17:40 -31.94341 115.97077 73 ft 0 kts 104°
2026-05-06 17:44 -31.94340 115.97075 73 ft 2 kts 104°
2026-05-06 17:45 -31.94338 115.97047 65 ft 4 kts 94°
2026-05-06 17:45 -31.94329 115.97029 62 ft 4 kts 145°
2026-05-06 17:45 -31.94307 115.97021 68 ft 4 kts 189°
2026-05-06 17:45 -31.94281 115.97029 70 ft 3 kts 194°
2026-05-06 17:46 -31.94278 115.97030 70 ft 0 kts 194°
2026-05-06 17:48 -31.94280 115.97030 70 ft 1 kts 194°
2026-05-06 17:48 -31.94292 115.97026 67 ft 2 kts 194°
2026-05-06 17:48 -31.94314 115.97020 64 ft 4 kts 194°
2026-05-06 17:49 -31.94347 115.97010 70 ft 6 kts 197°
2026-05-06 17:49 -31.94372 115.96969 72 ft 7 kts 262°
2026-05-06 17:49 -31.94362 115.96907 73 ft 7 kts 284°
2026-05-06 17:49 -31.94350 115.96851 71 ft 7 kts 284°
2026-05-06 17:50 -31.94341 115.96789 73 ft 8 kts 258°
2026-05-06 17:50 -31.94387 115.96752 71 ft 9 kts 193°
2026-05-06 17:50 -31.94451 115.96734 67 ft 10 kts 193°
2026-05-06 17:50 -31.94506 115.96687 68 ft 11 kts 251°
2026-05-06 17:51 -31.94495 115.96599 70 ft 11 kts 284°
2026-05-06 17:51 -31.94475 115.96505 65 ft 12 kts 284°
2026-05-06 17:51 -31.94453 115.96405 69 ft 13 kts 284°
2026-05-06 17:51 -31.94430 115.96298 72 ft 14 kts 284°
2026-05-06 17:52 -31.94407 115.96188 73 ft 14 kts 286°
2026-05-06 17:52 -31.94337 115.96105 67 ft 15 kts 330°
2026-05-06 17:52 -31.94247 115.96042 67 ft 15 kts 329°
2026-05-06 17:52 -31.94155 115.95976 67 ft 16 kts 329°
2026-05-06 17:53 -31.94102 115.95939 65 ft 7 kts 335°
2026-05-06 17:53 -31.94079 115.95954 70 ft 3 kts 61°
2026-05-06 17:53 -31.94077 115.95957 73 ft 0 kts 61°
2026-05-06 17:53 -31.94077 115.95958 73 ft 3 kts 61°
2026-05-06 17:54 -31.93956 115.96199 69 ft 75 kts 58°
2026-05-06 17:54 -31.93554 115.96980 70 ft 144 kts 59°
2026-05-06 17:54 -31.93013 115.98043 621 ft 152 kts 61°
2026-05-06 17:54 -31.92487 115.99141 1360 ft 160 kts 62°
2026-05-06 17:55 -31.91900 116.00309 1768 ft 178 kts 60°
2026-05-06 17:55 -31.91236 116.01619 2148 ft 198 kts 60°
2026-05-06 17:55 -31.90478 116.03098 2476 ft 222 kts 60°
2026-05-06 17:55 -31.89663 116.04690 3103 ft 231 kts 59°
2026-05-06 17:56 -31.88828 116.06322 3852 ft 235 kts 58°
2026-05-06 17:56 -31.87970 116.07988 4538 ft 242 kts 59°
2026-05-06 17:56 -31.87085 116.09709 5215 ft 249 kts 59°
2026-05-06 17:56 -31.86176 116.11482 5853 ft 257 kts 59°
2026-05-06 17:57 -31.85430 116.13415 6473 ft 264 kts 75°
2026-05-06 17:57 -31.84990 116.15538 7072 ft 271 kts 79°
2026-05-06 17:57 -31.84588 116.17721 7710 ft 275 kts 79°
2026-05-06 17:57 -31.84172 116.19938 8387 ft 281 kts 79°
2026-05-06 17:58 -31.83757 116.22206 9047 ft 285 kts 79°
2026-05-06 17:58 -31.83355 116.24492 9837 ft 286 kts 80°
2026-05-06 17:58 -31.82952 116.26805 10438 ft 296 kts 80°
2026-05-06 17:58 -31.82528 116.29220 10867 ft 309 kts 80°
2026-05-06 17:59 -31.82080 116.31770 11163 ft 328 kts 80°
2026-05-06 17:59 -31.81609 116.34468 11408 ft 346 kts 79°
2026-05-06 17:59 -31.81105 116.37308 11644 ft 363 kts 79°
2026-05-06 17:59 -31.80581 116.40278 11877 ft 379 kts 79°
2026-05-06 18:00 -31.80031 116.43375 12105 ft 393 kts 79°
2026-05-06 18:00 -31.79472 116.46547 12513 ft 399 kts 79°
2026-05-06 18:00 -31.78900 116.49755 12991 ft 402 kts 79°
2026-05-06 18:00 -31.78330 116.52978 13518 ft 405 kts 79°
2026-05-06 18:01 -31.77748 116.56231 14019 ft 407 kts 79°
2026-05-06 18:01 -31.77155 116.59503 14443 ft 411 kts 79°
2026-05-06 18:01 -31.76557 116.62794 14832 ft 414 kts 79°
2026-05-06 18:01 -31.75958 116.66109 15252 ft 416 kts 79°
2026-05-06 18:02 -31.75356 116.69446 15680 ft 419 kts 79°
2026-05-06 18:02 -31.74753 116.72802 16083 ft 421 kts 79°
2026-05-06 18:02 -31.74146 116.76168 16462 ft 423 kts 79°
2026-05-06 18:02 -31.73531 116.79556 16829 ft 425 kts 79°
2026-05-06 18:03 -31.72923 116.82915 17194 ft 427 kts 79°
2026-05-06 18:03 -31.72304 116.86332 17555 ft 429 kts 79°
2026-05-06 18:03 -31.71680 116.89765 17951 ft 430 kts 79°
2026-05-06 18:03 -31.71055 116.93208 18343 ft 431 kts 79°
2026-05-06 18:04 -31.70427 116.96661 18719 ft 433 kts 79°
2026-05-06 18:04 -31.69796 117.00129 19048 ft 435 kts 79°
2026-05-06 18:04 -31.69166 117.03614 19342 ft 437 kts 79°
2026-05-06 18:04 -31.68532 117.07109 19649 ft 439 kts 79°
2026-05-06 18:05 -31.67889 117.10633 19957 ft 442 kts 79°
2026-05-06 18:05 -31.67241 117.14170 20265 ft 444 kts 79°
2026-05-06 18:05 -31.66589 117.17718 20584 ft 446 kts 78°
2026-05-06 18:05 -31.65932 117.21281 21016 ft 446 kts 78°
2026-05-06 18:06 -31.65273 117.24848 21403 ft 448 kts 78°
2026-05-06 18:06 -31.64610 117.28420 21767 ft 450 kts 78°
2026-05-06 18:06 -31.63940 117.32024 22115 ft 453 kts 78°
2026-05-06 18:06 -31.63273 117.35604 22464 ft 456 kts 78°
2026-05-06 18:07 -31.62595 117.39247 22821 ft 458 kts 78°
2026-05-06 18:07 -31.61902 117.42951 23167 ft 461 kts 78°
2026-05-06 18:07 -31.61220 117.46587 23495 ft 463 kts 78°
2026-05-06 18:07 -31.60523 117.50290 23809 ft 466 kts 78°
2026-05-06 18:08 -31.59828 117.54014 24159 ft 467 kts 78°
2026-05-06 18:08 -31.59129 117.57735 24549 ft 466 kts 78°
2026-05-06 18:08 -31.58433 117.61444 24925 ft 465 kts 78°
2026-05-06 18:08 -31.57738 117.65144 25304 ft 464 kts 78°
2026-05-06 18:09 -31.57041 117.68838 25674 ft 464 kts 78°
2026-05-06 18:09 -31.56348 117.72525 26064 ft 463 kts 78°
2026-05-06 18:09 -31.55652 117.76203 26427 ft 462 kts 78°
2026-05-06 18:09 -31.54956 117.79885 26823 ft 461 kts 78°
2026-05-06 18:10 -31.54260 117.83562 27197 ft 461 kts 78°
2026-05-06 18:10 -31.53800 117.85985 27440 ft 460 kts 78°
2026-05-06 18:10 -31.53108 117.89647 27783 ft 460 kts 78°
2026-05-06 18:10 -31.52411 117.93301 28157 ft 459 kts 78°
2026-05-06 18:11 -31.51714 117.96946 28485 ft 458 kts 78°
2026-05-06 18:11 -31.51017 118.00588 28868 ft 457 kts 78°
2026-05-06 18:11 -31.50322 118.04225 29202 ft 457 kts 78°
2026-05-06 18:11 -31.49626 118.07855 29575 ft 456 kts 78°
2026-05-06 18:12 -31.48927 118.11473 29919 ft 455 kts 78°
2026-05-06 18:12 -31.48235 118.15091 30262 ft 455 kts 78°
2026-05-06 18:12 -31.47540 118.18708 30583 ft 454 kts 78°
2026-05-06 18:12 -31.46844 118.22309 30852 ft 454 kts 78°
2026-05-06 18:13 -31.46147 118.25916 31112 ft 454 kts 78°
2026-05-06 18:13 -31.45447 118.29521 31347 ft 454 kts 78°
2026-05-06 18:13 -31.44747 118.33135 31611 ft 454 kts 78°
2026-05-06 18:13 -31.44046 118.36741 31843 ft 454 kts 78°
2026-05-06 18:14 -31.43347 118.40340 32123 ft 453 kts 78°
2026-05-06 18:14 -31.42649 118.43931 32371 ft 453 kts 78°
2026-05-06 18:14 -31.41947 118.47530 32608 ft 453 kts 78°
2026-05-06 18:14 -31.41246 118.51124 32818 ft 453 kts 78°
2026-05-06 18:15 -31.40543 118.54720 33039 ft 453 kts 78°
2026-05-06 18:15 -31.39841 118.58313 33242 ft 453 kts 78°
2026-05-06 18:15 -31.39129 118.61907 33448 ft 453 kts 78°
2026-05-06 18:15 -31.38422 118.65497 33558 ft 454 kts 78°
2026-05-06 18:16 -31.37005 118.72692 33537 ft 453 kts 78°
2026-05-06 18:16 -31.35598 118.79890 33521 ft 453 kts 78°
2026-05-06 18:17 -31.34169 118.87070 33524 ft 453 kts 78°
2026-05-06 18:17 -31.32733 118.94252 33524 ft 453 kts 78°
2026-05-06 18:18 -31.31298 119.01428 33523 ft 453 kts 78°
2026-05-06 18:18 -31.29877 119.08560 33525 ft 453 kts 78°
2026-05-06 18:19 -31.28435 119.15722 33525 ft 453 kts 78°
2026-05-06 18:19 -31.26991 119.22897 33525 ft 453 kts 78°
2026-05-06 18:20 -31.25552 119.30067 33526 ft 452 kts 78°
2026-05-06 18:20 -31.24099 119.37215 33529 ft 453 kts 78°
2026-05-06 18:21 -31.22640 119.44368 33529 ft 452 kts 78°
2026-05-06 18:21 -31.21175 119.51519 33528 ft 452 kts 78°
2026-05-06 18:22 -31.19718 119.58680 33530 ft 453 kts 78°
2026-05-06 18:22 -31.18250 119.65830 33529 ft 453 kts 77°
2026-05-06 18:23 -31.16775 119.72972 33533 ft 453 kts 77°
2026-05-06 18:23 -31.15310 119.80123 33535 ft 453 kts 77°
2026-05-06 18:24 -31.13839 119.87262 33536 ft 453 kts 78°
2026-05-06 18:24 -31.12363 119.94410 33535 ft 453 kts 77°
2026-05-06 18:25 -31.10880 120.01503 33532 ft 453 kts 77°
2026-05-06 18:25 -31.09393 120.08636 33531 ft 453 kts 77°
2026-05-06 18:26 -31.07889 120.15773 33538 ft 452 kts 77°
2026-05-06 18:26 -31.06394 120.22897 33532 ft 452 kts 77°
2026-05-06 18:27 -31.04906 120.30022 33530 ft 452 kts 77°
2026-05-06 18:27 -31.03384 120.37145 33531 ft 452 kts 77°
2026-05-06 18:28 -31.01870 120.44258 33534 ft 452 kts 77°
2026-05-06 18:28 -31.00362 120.51332 33536 ft 452 kts 77°
2026-05-06 18:29 -30.98854 120.58454 33535 ft 453 kts 77°
2026-05-06 18:29 -30.97328 120.65571 33535 ft 453 kts 77°
2026-05-06 18:30 -30.95805 120.72688 33535 ft 452 kts 77°
2026-05-06 18:30 -30.94284 120.79799 33535 ft 452 kts 77°
2026-05-06 18:31 -30.92750 120.86908 33539 ft 452 kts 77°
2026-05-06 18:31 -30.91210 120.94014 33541 ft 452 kts 77°
2026-05-06 18:32 -30.89663 121.01116 33536 ft 453 kts 77°
2026-05-06 18:32 -30.88127 121.08228 33532 ft 453 kts 77°
2026-05-06 18:33 -30.86579 121.15336 33525 ft 453 kts 77°
2026-05-06 18:33 -30.85037 121.22394 33513 ft 453 kts 77°
2026-05-06 18:34 -30.83478 121.29487 33509 ft 452 kts 77°
2026-05-06 18:34 -30.81924 121.36584 33501 ft 452 kts 77°
2026-05-06 18:35 -30.80355 121.43663 33503 ft 452 kts 77°
2026-05-06 18:35 -30.78784 121.50761 33498 ft 452 kts 77°
2026-05-06 18:36 -30.77207 121.57854 33500 ft 454 kts 77°
2026-05-06 18:36 -30.75630 121.64954 33508 ft 454 kts 77°
2026-05-06 18:37 -30.74047 121.72058 33512 ft 454 kts 77°
2026-05-06 18:37 -30.72461 121.79154 33520 ft 454 kts 77°
2026-05-06 18:38 -30.70871 121.86259 33533 ft 454 kts 77°
2026-05-06 18:38 -30.69273 121.93353 33533 ft 454 kts 77°
2026-05-06 18:39 -30.67675 122.00450 33533 ft 454 kts 77°
2026-05-06 18:40 -30.65271 122.11085 33542 ft 454 kts 76°
2026-05-06 18:40 -30.63674 122.18135 33538 ft 454 kts 76°
2026-05-06 18:41 -30.62055 122.25222 33526 ft 454 kts 77°
2026-05-06 18:41 -30.60431 122.32313 33532 ft 454 kts 76°
2026-05-06 18:42 -30.58812 122.39401 33530 ft 454 kts 76°
2026-05-06 18:42 -30.57185 122.46481 33532 ft 454 kts 76°
2026-05-06 18:43 -30.55559 122.53559 33530 ft 454 kts 76°
2026-05-06 18:43 -30.53927 122.60636 33534 ft 454 kts 76°
2026-05-06 18:44 -30.52291 122.67705 33528 ft 454 kts 76°
2026-05-06 18:44 -30.50644 122.74781 33530 ft 454 kts 76°
2026-05-06 18:45 -30.49012 122.81813 33529 ft 454 kts 76°
2026-05-06 18:45 -30.47368 122.88887 33526 ft 454 kts 76°
2026-05-06 18:46 -30.45713 122.95963 33524 ft 455 kts 76°
2026-05-06 18:46 -30.44059 123.03039 33523 ft 455 kts 76°
2026-05-06 18:47 -30.42382 123.10164 33523 ft 455 kts 76°
2026-05-06 18:47 -30.40726 123.17194 33518 ft 455 kts 76°
2026-05-06 18:48 -30.39071 123.24288 33526 ft 456 kts 76°
2026-05-06 18:48 -30.37396 123.31376 33524 ft 456 kts 76°
2026-05-06 18:49 -30.35704 123.38448 33532 ft 456 kts 76°
2026-05-06 18:49 -30.34008 123.45526 33526 ft 456 kts 76°
2026-05-06 18:50 -30.32312 123.52601 33525 ft 456 kts 76°
2026-05-06 18:50 -30.30617 123.59667 33524 ft 456 kts 76°
2026-05-06 18:51 -30.28919 123.66738 33523 ft 456 kts 76°
2026-05-06 18:51 -30.27218 123.73816 33527 ft 457 kts 76°
2026-05-06 18:52 -30.25512 123.80913 33524 ft 457 kts 76°
2026-05-06 18:52 -30.23798 123.87992 33529 ft 457 kts 76°
2026-05-06 18:53 -30.22076 123.95074 33529 ft 457 kts 76°
2026-05-06 18:53 -30.20371 124.02162 33525 ft 458 kts 76°
2026-05-06 18:54 -30.18646 124.09245 33526 ft 458 kts 76°
2026-05-06 18:54 -30.16914 124.16323 33527 ft 458 kts 76°
2026-05-06 18:55 -30.15192 124.23357 33532 ft 458 kts 76°
2026-05-06 18:55 -30.13455 124.30453 33524 ft 459 kts 76°
2026-05-06 18:56 -30.11710 124.37540 33519 ft 459 kts 75°
2026-05-06 18:56 -30.09957 124.44631 33520 ft 459 kts 76°
2026-05-06 18:57 -30.08201 124.51715 33520 ft 460 kts 75°
2026-05-06 18:57 -30.06437 124.58814 33518 ft 460 kts 75°
2026-05-06 18:58 -30.04975 124.64702 33516 ft 460 kts 75°
2026-05-06 18:58 -30.03202 124.71795 33515 ft 460 kts 75°
2026-05-06 18:59 -30.01416 124.78885 33513 ft 460 kts 75°
2026-05-06 18:59 -29.99643 124.85990 33511 ft 460 kts 75°
2026-05-06 19:00 -29.97872 124.93081 33510 ft 460 kts 75°
2026-05-06 19:00 -29.96080 125.00175 33522 ft 461 kts 75°
2026-05-06 19:01 -29.94282 125.07273 33514 ft 461 kts 75°
2026-05-06 19:01 -29.92500 125.14330 33512 ft 461 kts 75°
2026-05-06 19:02 -29.90701 125.21434 33511 ft 461 kts 75°
2026-05-06 19:02 -29.88892 125.28528 33512 ft 461 kts 75°
2026-05-06 19:03 -29.87086 125.35618 33510 ft 461 kts 75°
2026-05-06 19:03 -29.85272 125.42713 33510 ft 461 kts 75°
2026-05-06 19:04 -29.83462 125.49808 33510 ft 461 kts 75°
2026-05-06 19:04 -29.81640 125.56909 33510 ft 462 kts 75°
2026-05-06 19:05 -29.79807 125.64001 33509 ft 462 kts 75°
2026-05-06 19:05 -29.77978 125.71094 33508 ft 462 kts 75°
2026-05-06 19:06 -29.76147 125.78177 33511 ft 462 kts 75°
2026-05-06 19:06 -29.74315 125.85227 33504 ft 463 kts 75°
2026-05-06 19:07 -29.72468 125.92321 33503 ft 463 kts 75°
2026-05-06 19:07 -29.70620 125.99413 33502 ft 462 kts 75°
2026-05-06 19:08 -29.68772 126.06500 33498 ft 463 kts 75°
2026-05-06 19:08 -29.66913 126.13578 33496 ft 463 kts 75°
2026-05-06 19:09 -29.65055 126.20680 33496 ft 463 kts 75°
2026-05-06 19:09 -29.63209 126.27713 33498 ft 463 kts 74°
2026-05-06 19:10 -29.61329 126.34801 33498 ft 463 kts 74°
2026-05-06 19:10 -29.59462 126.41884 33495 ft 464 kts 74°
2026-05-06 19:11 -29.57588 126.48985 33495 ft 464 kts 74°
2026-05-06 19:11 -29.55698 126.56065 33498 ft 464 kts 74°
2026-05-06 19:12 -29.53810 126.63160 33496 ft 464 kts 74°
2026-05-06 19:12 -29.51920 126.70241 33499 ft 464 kts 74°
2026-05-06 19:13 -29.50027 126.77332 33494 ft 464 kts 74°
2026-05-06 19:13 -29.48126 126.84418 33492 ft 465 kts 74°
2026-05-06 19:14 -29.46223 126.91508 33491 ft 465 kts 74°
2026-05-06 19:14 -29.44325 126.98598 33486 ft 465 kts 74°
2026-05-06 19:15 -29.42416 127.05633 33492 ft 465 kts 73°
2026-05-06 19:15 -29.40496 127.12718 33488 ft 465 kts 74°
2026-05-06 19:16 -29.38581 127.19792 33486 ft 465 kts 73°
2026-05-06 19:16 -29.36659 127.26866 33489 ft 465 kts 73°
2026-05-06 19:17 -29.34728 127.33939 33483 ft 465 kts 73°
2026-05-06 19:17 -29.32796 127.41012 33490 ft 465 kts 73°
2026-05-06 19:18 -29.30859 127.48082 33480 ft 465 kts 73°
2026-05-06 19:18 -29.28914 127.55151 33493 ft 465 kts 73°
2026-05-06 19:19 -29.26969 127.62214 33486 ft 465 kts 73°
2026-05-06 19:19 -29.25029 127.69285 33483 ft 465 kts 73°
2026-05-06 19:20 -29.23082 127.76352 33487 ft 465 kts 73°
2026-05-06 19:20 -29.21119 127.83421 33482 ft 465 kts 73°
2026-05-06 19:21 -29.19157 127.90479 33472 ft 465 kts 73°
2026-05-06 19:21 -29.17201 127.97493 33468 ft 466 kts 73°
2026-05-06 19:22 -29.15227 128.04561 33478 ft 466 kts 73°
2026-05-06 19:22 -29.13259 128.11620 33474 ft 466 kts 73°
2026-05-06 19:23 -29.11285 128.18690 33473 ft 466 kts 73°
2026-05-06 19:23 -29.09305 128.25749 33481 ft 466 kts 72°
2026-05-06 19:24 -29.07314 128.32796 33478 ft 466 kts 72°
2026-05-06 19:24 -29.05332 128.39853 33466 ft 466 kts 72°
2026-05-06 19:25 -29.03344 128.46916 33482 ft 466 kts 72°
2026-05-06 19:25 -29.01347 128.53960 33475 ft 466 kts 72°
2026-05-06 19:26 -28.99341 128.61000 33472 ft 466 kts 72°
2026-05-06 19:26 -28.97335 128.68046 33472 ft 467 kts 72°
2026-05-06 19:27 -28.95320 128.75102 33469 ft 467 kts 72°
2026-05-06 19:27 -28.93304 128.82161 33477 ft 467 kts 72°
2026-05-06 19:28 -28.91288 128.89215 33481 ft 467 kts 72°
2026-05-06 19:28 -28.89265 128.96277 33466 ft 468 kts 72°
2026-05-06 19:29 -28.88052 129.03542 33476 ft 467 kts 88°
2026-05-06 19:29 -28.87873 129.10966 33475 ft 468 kts 89°
2026-05-06 19:30 -28.87703 129.18392 33470 ft 469 kts 89°
2026-05-06 19:30 -28.87488 129.25793 33475 ft 470 kts 89°
2026-05-06 19:31 -28.87251 129.33238 33479 ft 470 kts 88°
2026-05-06 19:31 -28.86900 129.44421 33482 ft 468 kts 88°
2026-05-06 19:32 -28.86673 129.51849 33479 ft 469 kts 88°
2026-05-06 19:32 -28.86434 129.59281 33462 ft 469 kts 88°
2026-05-06 19:33 -28.86192 129.66735 33465 ft 471 kts 88°
2026-05-06 19:33 -28.85943 129.74200 33473 ft 471 kts 88°
2026-05-06 19:34 -28.85697 129.81668 33482 ft 471 kts 88°
2026-05-06 19:34 -28.85444 129.89150 33477 ft 473 kts 88°
2026-05-06 19:35 -28.85182 129.96644 33470 ft 473 kts 88°
2026-05-06 19:35 -28.84913 130.04140 33455 ft 473 kts 87°
2026-05-06 19:36 -28.84643 130.11658 33479 ft 474 kts 88°
2026-05-06 19:36 -28.84370 130.19143 33467 ft 472 kts 88°
2026-05-06 19:37 -28.84096 130.26585 33457 ft 473 kts 87°
2026-05-06 19:37 -28.83856 130.32883 33461 ft 475 kts 87°
2026-05-06 19:38 -28.83533 130.41626 33466 ft 475 kts 87°
2026-05-06 19:38 -28.83239 130.49149 33456 ft 476 kts 87°
2026-05-06 19:39 -28.82939 130.56705 33459 ft 477 kts 87°
2026-05-06 19:39 -28.82636 130.64258 33461 ft 477 kts 87°
2026-05-06 19:40 -28.82335 130.71815 33458 ft 477 kts 87°
2026-05-06 19:40 -28.82030 130.79365 33457 ft 477 kts 87°
2026-05-06 19:41 -28.81716 130.86932 33470 ft 477 kts 86°
2026-05-06 19:41 -28.81393 130.94491 33460 ft 478 kts 86°
2026-05-06 19:42 -28.81076 131.02011 33457 ft 478 kts 86°
2026-05-06 19:42 -28.80751 131.09586 33459 ft 478 kts 86°
2026-05-06 19:43 -28.80415 131.17153 33459 ft 479 kts 86°
2026-05-06 19:43 -28.80080 131.24744 33460 ft 479 kts 86°
2026-05-06 19:44 -28.79742 131.32340 33455 ft 479 kts 86°
2026-05-06 19:44 -28.79400 131.39927 33465 ft 480 kts 86°
2026-05-06 19:45 -28.79053 131.47514 33462 ft 479 kts 86°
2026-05-06 19:45 -28.78697 131.55100 33454 ft 479 kts 86°
2026-05-06 19:46 -28.78400 131.61409 33452 ft 480 kts 86°
2026-05-06 19:46 -28.78036 131.69000 33459 ft 480 kts 86°
2026-05-06 19:47 -28.77674 131.76598 33465 ft 480 kts 86°
2026-05-06 19:47 -28.77302 131.84185 33453 ft 480 kts 86°
2026-05-06 19:48 -28.76909 131.91784 33451 ft 480 kts 86°
2026-05-06 19:48 -28.76530 131.99378 33443 ft 480 kts 86°
2026-05-06 19:49 -28.76153 132.06989 33453 ft 480 kts 86°
2026-05-06 19:49 -28.75762 132.14594 33456 ft 480 kts 86°
2026-05-06 19:50 -28.75368 132.22190 33448 ft 480 kts 85°
2026-05-06 19:50 -28.74978 132.29797 33447 ft 481 kts 86°
2026-05-06 19:51 -28.74584 132.37356 33446 ft 481 kts 85°
2026-05-06 19:51 -28.74180 132.44962 33442 ft 482 kts 85°
2026-05-06 19:52 -28.73775 132.52583 33449 ft 482 kts 85°
2026-05-06 19:52 -28.73357 132.60197 33446 ft 482 kts 85°
2026-05-06 19:53 -28.72932 132.67824 33444 ft 482 kts 85°
2026-05-06 19:53 -28.72505 132.75456 33442 ft 483 kts 85°
2026-05-06 19:54 -28.72080 132.83089 33444 ft 482 kts 85°
2026-05-06 19:54 -28.71650 132.90671 33440 ft 482 kts 85°
2026-05-06 19:55 -28.71214 132.98292 33442 ft 482 kts 85°
2026-05-06 19:55 -28.70785 133.05918 33441 ft 483 kts 85°
2026-05-06 19:56 -28.70338 133.13554 33435 ft 483 kts 85°
2026-05-06 19:56 -28.69889 133.21178 33435 ft 483 kts 85°
2026-05-06 19:57 -28.69436 133.28821 33433 ft 484 kts 85°
2026-05-06 19:57 -28.68972 133.36471 33432 ft 484 kts 85°
2026-05-06 19:58 -28.68516 133.44117 33435 ft 483 kts 85°
2026-05-06 19:58 -28.68045 133.51771 33431 ft 484 kts 85°
2026-05-06 19:59 -28.67573 133.59418 33430 ft 484 kts 85°
2026-05-06 19:59 -28.67099 133.67069 33430 ft 485 kts 84°
2026-05-06 20:00 -28.66626 133.74728 33431 ft 485 kts 84°
2026-05-06 20:00 -28.66138 133.82393 33431 ft 485 kts 84°
2026-05-06 20:01 -28.65648 133.90067 33427 ft 486 kts 84°
2026-05-06 20:01 -28.65149 133.97700 33424 ft 486 kts 84°
2026-05-06 20:02 -28.64648 134.05384 33431 ft 487 kts 84°
2026-05-06 20:02 -28.64144 134.13077 33422 ft 487 kts 84°
2026-05-06 20:03 -28.63637 134.20763 33426 ft 487 kts 84°
2026-05-06 20:03 -28.63125 134.28456 33416 ft 488 kts 84°
2026-05-06 20:04 -28.62610 134.36161 33421 ft 488 kts 84°
2026-05-06 20:04 -28.62086 134.43864 33415 ft 488 kts 84°
2026-05-06 20:05 -28.61557 134.51576 33413 ft 489 kts 84°
2026-05-06 20:05 -28.61025 134.59286 33410 ft 489 kts 84°
2026-05-06 20:06 -28.60483 134.66997 33419 ft 489 kts 84°
2026-05-06 20:06 -28.59942 134.74728 33409 ft 489 kts 84°
2026-05-06 20:07 -28.59399 134.82441 33403 ft 489 kts 84°
2026-05-06 20:07 -28.58843 134.90160 33401 ft 489 kts 84°
2026-05-06 20:08 -28.58293 134.97828 33405 ft 489 kts 84°
2026-05-06 20:08 -28.57752 135.05551 33400 ft 490 kts 84°
2026-05-06 20:09 -28.57200 135.13277 33400 ft 490 kts 84°
2026-05-06 20:09 -28.56623 135.21011 33395 ft 490 kts 84°
2026-05-06 20:10 -28.56043 135.28795 33394 ft 490 kts 84°
2026-05-06 20:10 -28.55469 135.36473 33388 ft 490 kts 83°
2026-05-06 20:11 -28.54871 135.44203 33388 ft 491 kts 83°
2026-05-06 20:11 -28.54276 135.51938 33382 ft 491 kts 83°
2026-05-06 20:12 -28.53691 135.59683 33384 ft 491 kts 83°
2026-05-06 20:12 -28.53095 135.67413 33368 ft 491 kts 83°
2026-05-06 20:13 -28.52494 135.75151 33380 ft 491 kts 83°
2026-05-06 20:13 -28.51887 135.82888 33379 ft 492 kts 83°
2026-05-06 20:14 -28.51273 135.90628 33382 ft 492 kts 83°
2026-05-06 20:14 -28.50654 135.98369 33384 ft 492 kts 83°
2026-05-06 20:15 -28.50043 136.06116 33378 ft 492 kts 83°
2026-05-06 20:15 -28.49419 136.13814 33366 ft 492 kts 83°
2026-05-06 20:16 -28.48792 136.21556 33372 ft 492 kts 83°
2026-05-06 20:16 -28.48166 136.29310 33371 ft 492 kts 83°
2026-05-06 20:17 -28.47550 136.37056 33373 ft 492 kts 83°
2026-05-06 20:17 -28.46913 136.44809 33366 ft 493 kts 83°
2026-05-06 20:18 -28.46249 136.52566 33371 ft 493 kts 83°
2026-05-06 20:18 -28.45594 136.60315 33362 ft 493 kts 83°
2026-05-06 20:19 -28.44933 136.68072 33362 ft 493 kts 83°
2026-05-06 20:19 -28.44261 136.75825 33362 ft 493 kts 83°
2026-05-06 20:20 -28.43603 136.83581 33361 ft 493 kts 83°
2026-05-06 20:20 -28.42935 136.91334 33359 ft 493 kts 83°
2026-05-06 20:21 -28.42272 136.99097 33361 ft 494 kts 83°
2026-05-06 20:21 -28.41599 137.06860 33354 ft 494 kts 83°
2026-05-06 20:22 -28.40912 137.14614 33357 ft 493 kts 82°
2026-05-06 20:22 -28.40216 137.22372 33351 ft 493 kts 82°
2026-05-06 20:23 -28.39519 137.30123 33347 ft 494 kts 82°
2026-05-06 20:23 -28.38824 137.37882 33350 ft 494 kts 82°
2026-05-06 20:24 -28.38125 137.45642 33350 ft 494 kts 82°
2026-05-06 20:24 -28.37425 137.53405 33348 ft 494 kts 82°
2026-05-06 20:25 -28.36724 137.61104 33349 ft 494 kts 82°
2026-05-06 20:25 -28.36017 137.68872 33344 ft 494 kts 82°
2026-05-06 20:26 -28.35301 137.76630 33346 ft 494 kts 82°
2026-05-06 20:26 -28.34559 137.84395 33343 ft 495 kts 82°
2026-05-06 20:27 -28.33819 137.92163 33345 ft 495 kts 82°
2026-05-06 20:27 -28.33085 137.99929 33346 ft 495 kts 82°
2026-05-06 20:28 -28.32353 138.07690 33341 ft 495 kts 82°
2026-05-06 20:28 -28.31611 138.15466 33345 ft 495 kts 82°
2026-05-06 20:29 -28.30860 138.23237 33344 ft 495 kts 82°
2026-05-06 20:29 -28.30114 138.31008 33339 ft 496 kts 82°
2026-05-06 20:30 -28.28980 138.42678 33337 ft 495 kts 82°
2026-05-06 20:31 -28.28217 138.50457 33335 ft 496 kts 82°
2026-05-06 20:31 -28.27446 138.58233 33339 ft 496 kts 82°
2026-05-06 20:32 -28.26669 138.66010 33341 ft 496 kts 82°
2026-05-06 20:32 -28.26027 138.72479 33335 ft 497 kts 82°
2026-05-06 20:33 -28.25244 138.80269 33335 ft 497 kts 82°
2026-05-06 20:33 -28.24456 138.88056 33332 ft 497 kts 82°
2026-05-06 20:34 -28.23663 138.95841 33336 ft 497 kts 82°
2026-05-06 20:34 -28.22871 139.03618 33336 ft 497 kts 81°
2026-05-06 20:35 -28.22071 139.11409 33341 ft 497 kts 82°
2026-05-06 20:35 -28.21273 139.19200 33339 ft 498 kts 81°
2026-05-06 20:36 -28.20461 139.26993 33339 ft 498 kts 81°
2026-05-06 20:36 -28.19653 139.34738 33312 ft 498 kts 81°
2026-05-06 20:37 -28.18833 139.42523 33335 ft 497 kts 81°
2026-05-06 20:37 -28.18010 139.50303 33336 ft 497 kts 81°
2026-05-06 20:38 -28.17182 139.58089 33330 ft 498 kts 81°
2026-05-06 20:38 -28.16350 139.65883 33333 ft 498 kts 81°
2026-05-06 20:39 -28.15510 139.73678 33333 ft 498 kts 81°
2026-05-06 20:39 -28.14667 139.81466 33324 ft 499 kts 81°
2026-05-06 20:40 -28.13829 139.89222 33326 ft 498 kts 81°
2026-05-06 20:40 -28.12984 139.97005 33325 ft 498 kts 81°
2026-05-06 20:41 -28.12130 140.04796 33327 ft 499 kts 81°
2026-05-06 20:41 -28.11266 140.12587 33324 ft 499 kts 81°
2026-05-06 20:42 -28.10493 140.20400 33330 ft 500 kts 86°
2026-05-06 20:42 -28.10495 140.28294 33331 ft 501 kts 89°
2026-05-06 20:43 -28.10562 140.36185 33324 ft 502 kts 89°
2026-05-06 20:43 -28.10604 140.44086 33322 ft 501 kts 89°
2026-05-06 20:44 -28.10641 140.51991 33329 ft 501 kts 89°
2026-05-06 20:44 -28.10682 140.59885 33326 ft 501 kts 89°
2026-05-06 20:45 -28.10708 140.67789 33322 ft 502 kts 89°
2026-05-06 20:45 -28.10727 140.75697 33325 ft 502 kts 89°
2026-05-06 20:46 -28.10748 140.83607 33322 ft 502 kts 89°
2026-05-06 20:46 -28.10774 140.91474 33321 ft 503 kts 89°
2026-05-06 20:47 -28.10785 140.99397 33319 ft 503 kts 89°
2026-05-06 20:47 -28.10793 141.07313 33297 ft 503 kts 89°
2026-05-06 20:48 -28.10795 141.15234 33322 ft 503 kts 89°
2026-05-06 20:48 -28.10792 141.23164 33312 ft 503 kts 88°
2026-05-06 20:49 -28.10782 141.31097 33317 ft 503 kts 88°
2026-05-06 20:49 -28.10765 141.39035 33312 ft 504 kts 88°
2026-05-06 20:50 -28.10746 141.46972 33315 ft 504 kts 88°
2026-05-06 20:50 -28.10730 141.54911 33317 ft 504 kts 88°
2026-05-06 20:51 -28.10705 141.62789 33315 ft 504 kts 88°
2026-05-06 20:51 -28.10671 141.70722 33313 ft 504 kts 88°
2026-05-06 20:52 -28.10637 141.78662 33305 ft 504 kts 88°
2026-05-06 20:52 -28.10604 141.86604 33309 ft 504 kts 88°
2026-05-06 20:53 -28.10550 141.94556 33307 ft 505 kts 88°
2026-05-06 20:53 -28.10511 142.02505 33309 ft 505 kts 88°
2026-05-06 20:54 -28.10462 142.10451 33306 ft 505 kts 88°
2026-05-06 20:54 -28.10400 142.18414 33307 ft 505 kts 88°
2026-05-06 20:55 -28.10343 142.26375 33305 ft 505 kts 88°
2026-05-06 20:55 -28.10269 142.34334 33309 ft 506 kts 88°
2026-05-06 20:56 -28.10201 142.42256 33294 ft 506 kts 88°
2026-05-06 20:56 -28.10134 142.50232 33294 ft 507 kts 87°
2026-05-06 20:57 -28.10042 142.58217 33306 ft 508 kts 87°
2026-05-06 20:57 -28.09960 142.66221 33305 ft 508 kts 87°
2026-05-06 20:58 -28.09872 142.74225 33300 ft 508 kts 88°
2026-05-06 20:58 -28.09788 142.82237 33304 ft 509 kts 87°
2026-05-06 20:59 -28.09693 142.90257 33301 ft 509 kts 87°
2026-05-06 20:59 -28.09584 142.98223 33301 ft 509 kts 87°
2026-05-06 21:00 -28.09466 143.06242 33301 ft 509 kts 87°
2026-05-06 21:00 -28.09358 143.14264 33305 ft 510 kts 87°
2026-05-06 21:01 -28.09238 143.22288 33278 ft 510 kts 87°
2026-05-06 21:01 -28.09122 143.30374 33301 ft 514 kts 86°
2026-05-06 21:02 -28.08986 143.38455 33298 ft 513 kts 86°
2026-05-06 21:02 -28.08848 143.46533 33296 ft 513 kts 86°
2026-05-06 21:03 -28.08715 143.54612 33300 ft 513 kts 86°
2026-05-06 21:03 -28.08572 143.62692 33298 ft 513 kts 86°
2026-05-06 21:04 -28.08428 143.70777 33293 ft 513 kts 86°
2026-05-06 21:04 -28.08269 143.78861 33295 ft 514 kts 86°
2026-05-06 21:05 -28.08111 143.86964 33295 ft 514 kts 86°
2026-05-06 21:05 -28.07968 143.95061 33292 ft 514 kts 86°
2026-05-06 21:06 -28.07791 144.03104 33292 ft 514 kts 86°
2026-05-06 21:06 -28.07639 144.11200 33290 ft 515 kts 86°
2026-05-06 21:07 -28.07452 144.19303 33293 ft 514 kts 86°
2026-05-06 21:07 -28.07255 144.27447 33295 ft 515 kts 86°
2026-05-06 21:08 -28.07057 144.35519 33291 ft 516 kts 86°
2026-05-06 21:08 -28.06861 144.43640 33292 ft 516 kts 86°
2026-05-06 21:09 -28.06662 144.51769 33302 ft 516 kts 86°
2026-05-06 21:09 -28.06464 144.59871 33290 ft 514 kts 86°
2026-05-06 21:10 -28.06259 144.67966 33293 ft 514 kts 86°
2026-05-06 21:10 -28.06055 144.76125 33286 ft 521 kts 85°
2026-05-06 21:11 -28.05829 144.84353 33285 ft 523 kts 85°
2026-05-06 21:11 -28.05612 144.92575 33282 ft 523 kts 85°
2026-05-06 21:12 -28.05383 145.00800 33286 ft 522 kts 85°
2026-05-06 21:12 -28.05150 145.09032 33288 ft 523 kts 85°
2026-05-06 21:13 -28.04902 145.17268 33285 ft 524 kts 85°
2026-05-06 21:13 -28.04654 145.25511 33283 ft 524 kts 85°
2026-05-06 21:14 -28.04411 145.33740 33281 ft 523 kts 85°
2026-05-06 21:14 -28.04161 145.41973 33277 ft 523 kts 85°
2026-05-06 21:15 -28.03908 145.50231 33274 ft 527 kts 84°
2026-05-06 21:15 -28.03645 145.58476 33281 ft 528 kts 84°
2026-05-06 21:16 -28.03573 145.66808 33279 ft 530 kts 88°
2026-05-06 21:16 -28.03691 145.75140 33277 ft 530 kts 88°
2026-05-06 21:17 -28.03816 145.83475 33287 ft 530 kts 88°
2026-05-06 21:17 -28.03873 145.87654 33468 ft 531 kts 88°
2026-05-06 21:17 -28.03927 145.91838 33693 ft 532 kts 88°
2026-05-06 21:17 -28.03980 145.96035 33902 ft 533 kts 88°
2026-05-06 21:18 -28.04032 146.00226 34096 ft 534 kts 88°
2026-05-06 21:18 -28.04075 146.04437 34274 ft 535 kts 87°
2026-05-06 21:18 -28.04120 146.08653 34406 ft 537 kts 87°
2026-05-06 21:18 -28.04168 146.12885 34557 ft 538 kts 87°
2026-05-06 21:19 -28.04218 146.17123 34732 ft 539 kts 87°
2026-05-06 21:19 -28.04263 146.21360 34892 ft 539 kts 87°
2026-05-06 21:19 -28.04308 146.25604 35055 ft 539 kts 87°
2026-05-06 21:19 -28.04348 146.29852 35220 ft 540 kts 87°
2026-05-06 21:20 -28.04394 146.34102 35278 ft 541 kts 87°
2026-05-06 21:20 -28.04473 146.42672 35288 ft 545 kts 87°
2026-05-06 21:21 -28.04538 146.49798 35270 ft 545 kts 87°
2026-05-06 21:21 -28.04604 146.58382 35274 ft 545 kts 87°
2026-05-06 21:22 -28.04680 146.66967 35272 ft 545 kts 86°
2026-05-06 21:22 -28.04733 146.75541 35268 ft 545 kts 86°
2026-05-06 21:23 -28.04785 146.84127 35266 ft 545 kts 86°
2026-05-06 21:23 -28.04838 146.92718 35266 ft 547 kts 86°
2026-05-06 21:24 -28.04882 147.01336 35272 ft 547 kts 86°
2026-05-06 21:24 -28.04922 147.09948 35265 ft 547 kts 86°
2026-05-06 21:25 -28.04960 147.18549 35266 ft 546 kts 86°
2026-05-06 21:25 -28.04989 147.27156 35263 ft 546 kts 86°
2026-05-06 21:26 -28.05008 147.35793 35256 ft 551 kts 86°
2026-05-06 21:26 -28.05036 147.44462 35259 ft 551 kts 86°
2026-05-06 21:27 -28.05046 147.53082 35260 ft 551 kts 86°
2026-05-06 21:27 -28.05052 147.61744 35257 ft 551 kts 86°
2026-05-06 21:28 -28.05051 147.70416 35263 ft 551 kts 86°
2026-05-06 21:28 -28.05045 147.79088 35262 ft 551 kts 85°
2026-05-06 21:29 -28.05033 147.87764 35256 ft 551 kts 85°
2026-05-06 21:29 -28.05013 147.96439 35253 ft 553 kts 85°
2026-05-06 21:30 -28.04995 148.05143 35255 ft 553 kts 85°
2026-05-06 21:30 -28.04969 148.13840 35257 ft 553 kts 85°
2026-05-06 21:31 -28.04938 148.22541 35255 ft 553 kts 85°
2026-05-06 21:31 -28.04906 148.31261 35243 ft 555 kts 85°
2026-05-06 21:32 -28.04862 148.39994 35249 ft 554 kts 85°
2026-05-06 21:32 -28.04793 148.53086 35249 ft 555 kts 85°
2026-05-06 21:33 -28.04930 148.61843 35245 ft 559 kts 92°
2026-05-06 21:33 -28.05708 148.70611 35251 ft 559 kts 92°
2026-05-06 21:34 -28.06479 148.79370 35250 ft 559 kts 92°
2026-05-06 21:34 -28.07230 148.88142 35244 ft 559 kts 92°
2026-05-06 21:35 -28.07992 148.96898 35241 ft 559 kts 92°
2026-05-06 21:35 -28.08742 149.05614 35235 ft 559 kts 92°
2026-05-06 21:36 -28.09496 149.14382 35242 ft 560 kts 92°
2026-05-06 21:36 -28.10227 149.23169 35241 ft 560 kts 92°
2026-05-06 21:37 -28.10949 149.31951 35240 ft 560 kts 92°
2026-05-06 21:37 -28.11680 149.40739 35237 ft 560 kts 92°
2026-05-06 21:38 -28.12407 149.49530 35234 ft 560 kts 92°
2026-05-06 21:38 -28.13128 149.58316 35200 ft 560 kts 92°
2026-05-06 21:39 -28.13839 149.67114 35226 ft 561 kts 91°
2026-05-06 21:39 -28.14536 149.75849 35231 ft 560 kts 91°
2026-05-06 21:40 -28.15244 149.84638 35230 ft 560 kts 91°
2026-05-06 21:40 -28.15938 149.93437 35229 ft 561 kts 91°
2026-05-06 21:41 -28.16626 150.02252 35227 ft 561 kts 91°
2026-05-06 21:41 -28.17313 150.11057 35227 ft 561 kts 91°
2026-05-06 21:42 -28.17997 150.19852 35233 ft 561 kts 91°
2026-05-06 21:42 -28.18667 150.28677 35225 ft 561 kts 91°
2026-05-06 21:43 -28.19335 150.37496 35223 ft 561 kts 91°
2026-05-06 21:43 -28.19997 150.46312 35222 ft 561 kts 91°
2026-05-06 21:44 -28.20543 150.55086 35218 ft 559 kts 85°
2026-05-06 21:44 -28.19767 150.63826 35219 ft 552 kts 75°
2026-05-06 21:45 -28.18674 150.72376 35218 ft 552 kts 75°
2026-05-06 21:45 -28.17623 150.80991 35220 ft 553 kts 76°
2026-05-06 21:46 -28.16586 150.89636 35186 ft 554 kts 76°
2026-05-06 21:46 -28.15529 150.98283 35205 ft 552 kts 76°
2026-05-06 21:47 -28.14486 151.06840 35203 ft 546 kts 76°
2026-05-06 21:47 -28.13419 151.15430 35209 ft 555 kts 76°
2026-05-06 21:48 -28.12347 151.24089 35201 ft 554 kts 76°
2026-05-06 21:48 -28.11273 151.32736 35195 ft 554 kts 76°
2026-05-06 21:49 -28.10195 151.41386 35197 ft 554 kts 76°
2026-05-06 21:49 -28.09117 151.50009 35183 ft 550 kts 76°
2026-05-06 21:50 -28.08038 151.58536 35133 ft 546 kts 75°
2026-05-06 21:50 -28.06951 151.67076 35171 ft 555 kts 76°
2026-05-06 21:51 -28.05857 151.75726 35174 ft 554 kts 76°
2026-05-06 21:51 -28.05314 151.80032 35042 ft 549 kts 76°
2026-05-06 21:51 -28.04767 151.84327 34682 ft 552 kts 76°
2026-05-06 21:52 -28.04210 151.88630 34416 ft 554 kts 76°
2026-05-06 21:52 -28.03645 151.92949 34177 ft 554 kts 75°
2026-05-06 21:52 -28.03086 151.97261 33900 ft 554 kts 76°
2026-05-06 21:52 -28.02527 152.01577 33637 ft 554 kts 75°
2026-05-06 21:53 -28.01962 152.05889 33356 ft 554 kts 76°
2026-05-06 21:53 -28.01405 152.10184 32780 ft 551 kts 75°
2026-05-06 21:53 -28.00839 152.14480 32046 ft 551 kts 75°
2026-05-06 21:53 -28.00279 152.18768 31284 ft 551 kts 75°
2026-05-06 21:54 -27.99716 152.23052 30498 ft 551 kts 75°
2026-05-06 21:54 -27.99145 152.27341 29604 ft 550 kts 75°
2026-05-06 21:54 -27.98584 152.31614 28788 ft 548 kts 75°
2026-05-06 21:54 -27.98031 152.35866 28029 ft 543 kts 76°
2026-05-06 21:55 -27.97476 152.40057 27399 ft 536 kts 76°
2026-05-06 21:55 -27.96922 152.44212 26726 ft 531 kts 76°
2026-05-06 21:55 -27.96371 152.48321 26077 ft 526 kts 77°
2026-05-06 21:55 -27.95831 152.52394 25443 ft 520 kts 77°
2026-05-06 21:56 -27.95207 152.56396 24794 ft 512 kts 71°
2026-05-06 21:56 -27.94113 152.60165 24138 ft 499 kts 60°
2026-05-06 21:56 -27.92613 152.63660 23466 ft 491 kts 57°
2026-05-06 21:56 -27.91049 152.67064 22745 ft 485 kts 57°
2026-05-06 21:57 -27.89493 152.70429 22044 ft 480 kts 57°
2026-05-06 21:57 -27.87958 152.73762 21362 ft 475 kts 57°
2026-05-06 21:57 -27.86419 152.77023 20715 ft 466 kts 54°
2026-05-06 21:57 -27.84645 152.79976 20098 ft 455 kts 49°
2026-05-06 21:58 -27.82796 152.82851 19533 ft 448 kts 49°
2026-05-06 21:58 -27.80885 152.85576 18963 ft 436 kts 41°
2026-05-06 21:58 -27.78658 152.87799 18412 ft 420 kts 30°
2026-05-06 21:58 -27.76234 152.89573 17832 ft 410 kts 26°
2026-05-06 21:59 -27.73819 152.91224 17262 ft 403 kts 25°
2026-05-06 21:59 -27.71441 152.92855 16707 ft 397 kts 26°
2026-05-06 21:59 -27.69106 152.94473 16198 ft 391 kts 26°
2026-05-06 21:59 -27.66811 152.96084 15714 ft 385 kts 26°
2026-05-06 22:00 -27.64561 152.97721 15240 ft 386 kts 31°
2026-05-06 22:00 -27.62519 152.99713 14761 ft 392 kts 42°
2026-05-06 22:00 -27.60845 153.02171 14289 ft 398 kts 54°
2026-05-06 22:00 -27.59441 153.04868 13806 ft 399 kts 57°
2026-05-06 22:01 -27.58088 153.07588 13268 ft 397 kts 57°
2026-05-06 22:01 -27.56732 153.10285 12789 ft 393 kts 57°
2026-05-06 22:01 -27.55379 153.12946 12319 ft 390 kts 57°
2026-05-06 22:01 -27.53877 153.15462 11824 ft 383 kts 46°
2026-05-06 22:02 -27.51980 153.17516 11388 ft 375 kts 38°
2026-05-06 22:02 -27.50025 153.19392 11097 ft 362 kts 37°
2026-05-06 22:02 -27.48139 153.21185 10867 ft 348 kts 38°
2026-05-06 22:02 -27.46338 153.22915 10658 ft 333 kts 38°
2026-05-06 22:03 -27.44617 153.24574 10463 ft 319 kts 38°
2026-05-06 22:03 -27.42975 153.26169 10276 ft 305 kts 38°
2026-05-06 22:03 -27.41401 153.27717 10057 ft 297 kts 38°
2026-05-06 22:03 -27.39852 153.29235 9698 ft 294 kts 38°
2026-05-06 22:04 -27.38330 153.30716 9291 ft 293 kts 39°
2026-05-06 22:04 -27.36772 153.32236 9002 ft 292 kts 39°
2026-05-06 22:04 -27.35163 153.33561 8945 ft 287 kts 27°
2026-05-06 22:04 -27.33377 153.34528 8586 ft 284 kts 22°
2026-05-06 22:05 -27.31567 153.35430 8160 ft 284 kts 22°
2026-05-06 22:05 -27.29760 153.36333 7785 ft 285 kts 22°
2026-05-06 22:05 -27.27956 153.37243 7496 ft 284 kts 22°
2026-05-06 22:05 -27.26157 153.38157 7241 ft 283 kts 22°
2026-05-06 22:06 -27.24367 153.39070 6990 ft 282 kts 23°
2026-05-06 22:06 -27.22582 153.39983 6728 ft 282 kts 23°
2026-05-06 22:06 -27.20757 153.40745 6457 ft 279 kts
2026-05-06 22:06 -27.18855 153.40631 6169 ft 274 kts 340°
2026-05-06 22:07 -27.17238 153.39550 5899 ft 271 kts 319°
2026-05-06 22:07 -27.15833 153.38153 5635 ft 269 kts 317°
2026-05-06 22:07 -27.14440 153.36751 5349 ft 268 kts 316°
2026-05-06 22:07 -27.13295 153.35142 5094 ft 261 kts 293°
2026-05-06 22:08 -27.12997 153.33868 5010 ft 252 kts 273°
2026-05-06 22:08 -27.13515 153.31406 4745 ft 243 kts 244°
2026-05-06 22:08 -27.14280 153.29742 4562 ft 235 kts 243°
2026-05-06 22:08 -27.14771 153.28682 4464 ft 227 kts 244°
2026-05-06 22:09 -27.15456 153.27165 4464 ft 205 kts 244°
2026-05-06 22:09 -27.16147 153.25840 4499 ft 195 kts 231°
2026-05-06 22:09 -27.17246 153.24955 4384 ft 196 kts 208°
2026-05-06 22:09 -27.18470 153.24285 4182 ft 195 kts 207°
2026-05-06 22:10 -27.19696 153.23634 3920 ft 194 kts 208°
2026-05-06 22:10 -27.20904 153.22950 3655 ft 194 kts 208°
2026-05-06 22:10 -27.22102 153.22265 3378 ft 193 kts 208°
2026-05-06 22:10 -27.23297 153.21580 3107 ft 191 kts 208°
2026-05-06 22:11 -27.24470 153.20908 2840 ft 187 kts 208°
2026-05-06 22:11 -27.25622 153.20247 2585 ft 186 kts 208°
2026-05-06 22:11 -27.26773 153.19586 2333 ft 186 kts 208°
2026-05-06 22:11 -27.27924 153.18926 2087 ft 185 kts 208°
2026-05-06 22:12 -27.29056 153.18276 1854 ft 178 kts 208°
2026-05-06 22:12 -27.30106 153.17673 1642 ft 163 kts 208°
2026-05-06 22:12 -27.31053 153.17129 1404 ft 143 kts 209°
2026-05-06 22:12 -27.31917 153.16632 1211 ft 140 kts 209°
2026-05-06 22:13 -27.32796 153.16128 1027 ft 139 kts 209°
2026-05-06 22:13 -27.33646 153.15639 856 ft 139 kts 209°
2026-05-06 22:13 -27.34501 153.15138 701 ft 138 kts 208°
2026-05-06 22:13 -27.35361 153.14642 520 ft 136 kts 208°
2026-05-06 22:14 -27.36198 153.14157 330 ft 135 kts 208°
2026-05-06 22:14 -27.37023 153.13685 169 ft 134 kts 207°
2026-05-06 22:14 -27.37845 153.13216 31 ft 129 kts 207°
2026-05-06 22:14 -27.38536 153.12818 28 ft 84 kts 206°
2026-05-06 22:15 -27.38858 153.12612 29 ft 36 kts 220°
2026-05-06 22:15 -27.38996 153.12471 25 ft 17 kts 231°
2026-05-06 22:15 -27.39061 153.12362 26 ft 16 kts 237°
2026-05-06 22:15 -27.39123 153.12255 27 ft 13 kts 237°
2026-05-06 22:16 -27.39127 153.12172 27 ft 12 kts 304°
2026-05-06 22:16 -27.39046 153.12162 27 ft 14 kts 27°
2026-05-06 22:16 -27.38953 153.12215 27 ft 16 kts 27°
2026-05-06 22:16 -27.38851 153.12274 27 ft 17 kts 27°
2026-05-06 22:17 -27.38766 153.12323 27 ft 11 kts 27°
2026-05-06 22:17 -27.38716 153.12351 27 ft 6 kts 18°
2026-05-06 22:17 -27.38678 153.12329 27 ft 8 kts 300°
2026-05-06 22:17 -27.38671 153.12280 27 ft 6 kts 283°
2026-05-06 22:18 -27.38655 153.12250 27 ft 3 kts 308°
2026-05-06 22:18 -27.38648 153.12240 27 ft 0 kts 308°